Location: Arroyo Grande
(40.2671°N, 4.2512°W)
Time: 15:26:32
(UTC+00:00)

Cosmos 2322 Rocket - Pass Details

Date: 03 February 2023
Orbit: 832 x 851 km, 71.0° (Epoch: 21 March)

Event Time Altitude Azimuth Distance (km) Brightness Sun altitude
Rises 18:11:41 0° 193° (SSW) 3,361 5.7 -7.0°
Reaches altitude 10° 18:14:07 10° 190° (S) 2,430 4.9 -7.4°
Maximum altitude 18:19:38 65° 109° (ESE) 913 2.2 -8.5°
Drops below altitude 10° 18:25:10 10° 29° (NNE) 2,448 4.2 -9.5°
Sets 18:27:38 0° 27° (NNE) 3,388 5.0 -9.9°
